When you browse on this site, cookies collect data to enhance your experience and personalize the content and advertising you see.
Visit our Privacy Policy to learn more. By continuing to use the site, you agree to this use of cookies and data.
  • In France
  • List of Countries
  • For 7 days
  • Water Temperature
  • Weather Map
  • Weather Widgets
  • user-avatar
    Login

    Hourly Weather Jaunde

    Today, 4 April, Saturday

    Time Temperature Precipitation Wind Pressure Humidity
    00:00 +23°C° 4.2 mm 1 mps 697 mmHg 97%
    01:00 +22°C° 0 mm 1 mps 697 mmHg 96%
    02:00 +22°C° 1.9 mm 1 mps 696 mmHg 97%
    03:00 +22°C° 1.9 mm 1 mps 696 mmHg 97%
    04:00 +22°C° 1.9 mm 1 mps 695 mmHg 97%
    05:00 +22°C° 0 mm 1 mps 696 mmHg 96%
    06:00 +22°C° 0 mm 1 mps 697 mmHg 96%
    07:00 +22°C° 0 mm 1 mps 698 mmHg 93%
    08:00 +24°C° 0 mm 1 mps 698 mmHg 85%
    09:00 +24°C° 0 mm 0 mps 698 mmHg 77%
    10:00 +26°C° 0 mm 0 mps 698 mmHg 69%
    11:00 +27°C° 0 mm 0 mps 698 mmHg 64%
    12:00 +30°C° 0 mm 1 mps 698 mmHg 60%
    13:00 +30°C° 0 mm 1 mps 698 mmHg 59%
    14:00 +30°C° 0.1 mm 1 mps 697 mmHg 62%
    15:00 +29°C° 0.1 mm 1 mps 696 mmHg 66%
    16:00 +28°C° 0.1 mm 1 mps 696 mmHg 69%
    17:00 +27°C° 0.5 mm 1 mps 696 mmHg 77%
    18:00 +25°C° 0.5 mm 1 mps 696 mmHg 85%
    19:00 +24°C° 0.5 mm 1 mps 696 mmHg 93%
    20:00 +23°C° 0.4 mm 1 mps 697 mmHg 94%
    21:00 +23°C° 0.4 mm 1 mps 697 mmHg 96%
    22:00 +22°C° 0.4 mm 1 mps 698 mmHg 97%
    23:00 +22°C° 0.8 mm 1 mps 698 mmHg 98%

    Tomorrow, 5 April, Sunday

    Time Temperature Precipitation Wind Pressure Humidity
    00:00 +22°C° 0.8 mm 1 mps 698 mmHg 98%
    01:00 +22°C° 0.8 mm 1 mps 699 mmHg 99%
    02:00 +22°C° 0.1 mm 1 mps 698 mmHg 99%
    03:00 +22°C° 0.1 mm 1 mps 697 mmHg 98%
    04:00 +22°C° 0.1 mm 1 mps 696 mmHg 98%
    05:00 +20°C° 0 mm 0 mps 697 mmHg 98%
    06:00 +20°C° 0 mm 0 mps 697 mmHg 98%
    07:00 +20°C° 0 mm 0 mps 698 mmHg 98%
    08:00 +22°C° 0 mm 0 mps 698 mmHg 87%
    09:00 +25°C° 0 mm 0 mps 699 mmHg 77%
    10:00 +27°C° 0 mm 0 mps 699 mmHg 67%
    11:00 +29°C° 0 mm 0 mps 699 mmHg 59%
    12:00 +33°C° 0 mm 1 mps 698 mmHg 51%
    13:00 +35°C° 0 mm 1 mps 698 mmHg 43%
    14:00 +35°C° 0 mm 1 mps 697 mmHg 42%
    15:00 +35°C° 0 mm 1 mps 696 mmHg 41%
    16:00 +33°C° 0 mm 0 mps 695 mmHg 40%
    17:00 +30°C° 0 mm 0 mps 695 mmHg 49%
    18:00 +28°C° 0 mm 0 mps 695 mmHg 58%
    19:00 +25°C° 0 mm 0 mps 695 mmHg 67%
    20:00 +24°C° 0.8 mm 0 mps 696 mmHg 75%
    21:00 +23°C° 0.8 mm 0 mps 696 mmHg 83%
    22:00 +22°C° 0.8 mm 0 mps 697 mmHg 90%
    23:00 +22°C° 1.1 mm 0 mps 697 mmHg 92%

    Day after tomorrow, 6 April, Monday

    Time Temperature Precipitation Wind Pressure Humidity
    00:00 +22°C° 1.1 mm 0 mps 697 mmHg 94%
    01:00 +21°C° 1.1 mm 0 mps 697 mmHg 96%
    02:00 +21°C° 1.4 mm 0 mps 697 mmHg 96%
    03:00 +21°C° 1.4 mm 0 mps 697 mmHg 97%
    04:00 +21°C° 1.4 mm 0 mps 696 mmHg 97%
    05:00 +21°C° 0.1 mm 0 mps 697 mmHg 96%
    06:00 +22°C° 0.1 mm 0 mps 697 mmHg 96%
    07:00 +22°C° 0.1 mm 0 mps 698 mmHg 96%
    08:00 +24°C° 0.3 mm 0 mps 698 mmHg 86%
    09:00 +26°C° 0.3 mm 0 mps 699 mmHg 77%
    10:00 +30°C° 0.3 mm 1 mps 699 mmHg 68%
    11:00 +31°C° 0.3 mm 1 mps 699 mmHg 61%
    12:00 +33°C° 0.3 mm 1 mps 698 mmHg 54%
    13:00 +34°C° 0.3 mm 1 mps 698 mmHg 47%
    14:00 +33°C° 0.6 mm 1 mps 697 mmHg 53%
    15:00 +32°C° 0.6 mm 1 mps 696 mmHg 59%
    16:00 +31°C° 0.6 mm 1 mps 695 mmHg 65%
    17:00 +29°C° 1.6 mm 1 mps 696 mmHg 74%
    18:00 +27°C° 1.6 mm 1 mps 696 mmHg 83%
    19:00 +25°C° 1.6 mm 2 mps 696 mmHg 93%
    20:00 +24°C° 1.4 mm 1 mps 697 mmHg 94%
    21:00 +24°C° 1.4 mm 1 mps 697 mmHg 95%
    22:00 +22°C° 1.4 mm 0 mps 698 mmHg 96%
    23:00 +24°C° 2.7 mm 1 mps 698 mmHg 96%

    7 April, Tuesday

    Time Temperature Precipitation Wind Pressure Humidity
    00:00 +23°C° 2.7 mm 1 mps 698 mmHg 96%
    01:00 +23°C° 2.7 mm 1 mps 698 mmHg 96%
    02:00 +23°C° 0.6 mm 1 mps 697 mmHg 96%
    03:00 +22°C° 0.6 mm 1 mps 696 mmHg 96%
    04:00 +22°C° 0.6 mm 1 mps 696 mmHg 96%
    05:00 +22°C° 0 mm 1 mps 696 mmHg 96%
    06:00 +22°C° 0 mm 1 mps 697 mmHg 96%
    07:00 +20°C° 0 mm 0 mps 697 mmHg 97%
    08:00 +21°C° 0 mm 0 mps 697 mmHg 95%
    09:00 +24°C° 0 mm 1 mps 698 mmHg 93%
    10:00 +24°C° 0 mm 1 mps 698 mmHg 91%
    11:00 +27°C° 0 mm 1 mps 698 mmHg 78%
    12:00 +29°C° 0 mm 1 mps 697 mmHg 66%
    13:00 +32°C° 0 mm 1 mps 697 mmHg 53%
    14:00 +32°C° 0 mm 1 mps 696 mmHg 54%
    15:00 +32°C° 0 mm 1 mps 696 mmHg 55%
    16:00 +32°C° 0 mm 1 mps 695 mmHg 56%
    17:00 +29°C° 0.7 mm 2 mps 695 mmHg 67%
    18:00 +27°C° 0.7 mm 2 mps 695 mmHg 79%
    19:00 +24°C° 0.7 mm 2 mps 695 mmHg 90%
    20:00 +24°C° 0.8 mm 2 mps 696 mmHg 93%
    21:00 +23°C° 0.8 mm 2 mps 696 mmHg 95%
    22:00 +23°C° 0.8 mm 2 mps 697 mmHg 97%
    23:00 +23°C° 0.7 mm 1 mps 697 mmHg 97%

    8 April, Wednesday

    Time Temperature Precipitation Wind Pressure Humidity
    00:00 +23°C° 0.7 mm 1 mps 697 mmHg 97%
    01:00 +23°C° 0.7 mm 1 mps 697 mmHg 98%
    02:00 +23°C° 0.6 mm 1 mps 697 mmHg 98%
    03:00 +22°C° 0.6 mm 1 mps 697 mmHg 98%
    04:00 +22°C° 0.6 mm 1 mps 697 mmHg 98%
    05:00 +22°C° 0.2 mm 1 mps 697 mmHg 97%
    06:00 +20°C° 0.2 mm 0 mps 697 mmHg 96%
    07:00 +20°C° 0.2 mm 0 mps 698 mmHg 95%
    08:00 +21°C° 0 mm 0 mps 698 mmHg 91%
    09:00 +23°C° 0 mm 0 mps 698 mmHg 88%
    10:00 +26°C° 0 mm 1 mps 699 mmHg 84%
    11:00 +28°C° 0 mm 1 mps 698 mmHg 73%
    12:00 +30°C° 0 mm 1 mps 698 mmHg 61%
    13:00 +33°C° 0 mm 1 mps 697 mmHg 49%
    14:00 +32°C° 0.1 mm 1 mps 696 mmHg 52%
    15:00 +32°C° 0.1 mm 1 mps 696 mmHg 54%
    16:00 +31°C° 0.1 mm 1 mps 695 mmHg 57%
    17:00 +29°C° 0.3 mm 1 mps 695 mmHg 67%
    18:00 +27°C° 0.3 mm 1 mps 695 mmHg 77%
    19:00 +25°C° 0.3 mm 1 mps 695 mmHg 87%
    20:00 +25°C° 0 mm 1 mps 696 mmHg 89%
    21:00 +24°C° 0 mm 1 mps 696 mmHg 91%
    22:00 +24°C° 0 mm 1 mps 697 mmHg 93%
    23:00 +23°C° 0 mm 1 mps 696 mmHg 95%

    9 April, Thursday

    Time Temperature Precipitation Wind Pressure Humidity
    00:00 +21°C° 0 mm 0 mps 696 mmHg 96%
    01:00 +21°C° 0 mm 0 mps 696 mmHg 97%
    02:00 +21°C° 0 mm 0 mps 695 mmHg 98%
    03:00 +21°C° 0 mm 0 mps 695 mmHg 98%
    04:00 +20°C° 0 mm 0 mps 695 mmHg 99%
    05:00 +21°C° 0.1 mm 0 mps 696 mmHg 98%
    06:00 +21°C° 0.1 mm 0 mps 696 mmHg 97%
    07:00 +23°C° 0.1 mm 1 mps 697 mmHg 96%
    08:00 +25°C° 0 mm 1 mps 697 mmHg 85%
    09:00 +27°C° 0 mm 1 mps 698 mmHg 75%
    10:00 +30°C° 0 mm 1 mps 699 mmHg 64%
    11:00 +30°C° 0.5 mm 1 mps 698 mmHg 64%
    12:00 +31°C° 0.5 mm 1 mps 697 mmHg 63%
    13:00 +31°C° 0.5 mm 2 mps 697 mmHg 63%
    14:00 +29°C° 4 mm 1 mps 696 mmHg 73%
    15:00 +27°C° 4 mm 1 mps 695 mmHg 83%
    16:00 +25°C° 4 mm 1 mps 694 mmHg 93%
    17:00 +25°C° 2.3 mm 1 mps 695 mmHg 94%
    18:00 +24°C° 2.3 mm 1 mps 695 mmHg 95%
    19:00 +24°C° 2.3 mm 1 mps 696 mmHg 96%
    20:00 +23°C° 2.9 mm 1 mps 696 mmHg 97%
    21:00 +23°C° 2.9 mm 1 mps 697 mmHg 97%
    22:00 +23°C° 2.9 mm 1 mps 697 mmHg 98%
    23:00 +22°C° 0.9 mm 1 mps 697 mmHg 97%
    Show more